AUA134 LICJ-LOWW

Flight info

Callsign AUA134
Flight time 1h 44m
Altitude 38000
Route ROSAS DCT AMANO DCT VAPUP/N0444F390 DCT NIVES DCT ZAG/N0445F380 DCT OBUTI OBUTI2W
Aircraft A320/M-SDE3FGHIRWY/LB1

Departure

Time 2026-04-21 06:18
Airport Falcone–Borsellino Airport (LICJ)

Arrival

Time 2026-04-21 08:02
Airport Vienna International Airport (LOWW)
Time Latitude Longitude Altitude Speed Heading
2026-04-21 05:52 38.18491 13.10469 58 ft 0 kts 337°
2026-04-21 06:09 38.18481 13.10474 65 ft 4 kts 333°
2026-04-21 06:09 38.18458 13.10492 57 ft 4 kts 323°
2026-04-21 06:10 38.18436 13.10511 58 ft 4 kts 343°
2026-04-21 06:10 38.18425 13.10513 58 ft 0 kts 43°
2026-04-21 06:13 38.18426 13.10514 58 ft 1 kts 43°
2026-04-21 06:13 38.18444 13.10541 61 ft 7 kts 57°
2026-04-21 06:13 38.18467 13.10616 57 ft 11 kts 80°
2026-04-21 06:13 38.18504 13.10726 63 ft 16 kts 86°
2026-04-21 06:14 38.18472 13.10872 60 ft 18 kts 104°
2026-04-21 06:14 38.18428 13.11001 64 ft 13 kts 66°
2026-04-21 06:14 38.18464 13.11108 64 ft 14 kts 66°
2026-04-21 06:14 38.18503 13.11227 64 ft 16 kts 67°
2026-04-21 06:15 38.18549 13.11363 61 ft 18 kts 66°
2026-04-21 06:15 38.18602 13.11514 60 ft 20 kts 66°
2026-04-21 06:15 38.18613 13.11624 63 ft 11 kts 96°
2026-04-21 06:15 38.18605 13.11717 61 ft 9 kts 96°
2026-04-21 06:16 38.18598 13.11787 68 ft 6 kts 97°
2026-04-21 06:16 38.18594 13.11828 69 ft 3 kts 98°
2026-04-21 06:16 38.18580 13.11870 70 ft 12 kts 125°
2026-04-21 06:16 38.18508 13.11851 63 ft 12 kts 243°
2026-04-21 06:17 38.18466 13.11731 70 ft 24 kts 247°
2026-04-21 06:17 38.18330 13.11324 60 ft 86 kts 247°
2026-04-21 06:17 38.18007 13.10363 65 ft 147 kts 247°
2026-04-21 06:17 38.17575 13.08996 320 ft 175 kts 249°
2026-04-21 06:18 38.17119 13.07570 1106 ft 173 kts 245°
2026-04-21 06:18 38.16652 13.06180 1969 ft 169 kts 244°
2026-04-21 06:18 38.16168 13.04804 2600 ft 178 kts 244°
2026-04-21 06:18 38.15653 13.03279 3005 ft 200 kts 251°
2026-04-21 06:19 38.15478 13.01430 3505 ft 223 kts 273°
2026-04-21 06:19 38.15850 12.99448 4077 ft 246 kts 291°
2026-04-21 06:19 38.16829 12.97587 4903 ft 260 kts 312°
2026-04-21 06:19 38.18324 12.96265 5921 ft 267 kts 333°
2026-04-21 06:20 38.20166 12.95718 6818 ft 280 kts 356°
2026-04-21 06:20 38.22095 12.96225 7760 ft 290 kts 22°
2026-04-21 06:20 38.23725 12.97764 8741 ft 298 kts 47°
2026-04-21 06:20 38.24749 13.00072 9702 ft 305 kts 70°
2026-04-21 06:21 38.25483 13.02621 10454 ft 314 kts 60°
2026-04-21 06:21 38.26826 13.04908 10785 ft 333 kts 46°
2026-04-21 06:21 38.28386 13.07168 11424 ft 344 kts 46°
2026-04-21 06:21 38.29987 13.09471 12239 ft 350 kts 45°
2026-04-21 06:22 38.31454 13.11969 13093 ft 357 kts 57°
2026-04-21 06:22 38.32593 13.14805 13920 ft 363 kts 64°
2026-04-21 06:22 38.33546 13.17810 14602 ft 369 kts 67°
2026-04-21 06:22 38.34423 13.20909 15286 ft 374 kts 67°
2026-04-21 06:23 38.35525 13.23910 15955 ft 375 kts 56°
2026-04-21 06:23 38.36546 13.25737 16405 ft 375 kts 46°
2026-04-21 06:23 38.38416 13.27969 17090 ft 374 kts 34°
2026-04-21 06:23 38.40489 13.29989 17776 ft 377 kts 34°
2026-04-21 06:24 38.42582 13.32033 18426 ft 381 kts 34°
2026-04-21 06:24 38.44689 13.34109 19007 ft 384 kts 34°
2026-04-21 06:24 38.46822 13.36181 19591 ft 386 kts 30°
2026-04-21 06:24 38.49148 13.37870 20177 ft 384 kts 20°
2026-04-21 06:25 38.51643 13.39073 20748 ft 384 kts 15°
2026-04-21 06:25 38.54180 13.40196 21312 ft 387 kts 14°
2026-04-21 06:25 38.56734 13.41324 21887 ft 390 kts 14°
2026-04-21 06:25 38.59309 13.42457 22448 ft 393 kts 14°
2026-04-21 06:26 38.61900 13.43604 23005 ft 396 kts 14°
2026-04-21 06:26 38.64509 13.44766 23531 ft 399 kts 14°
2026-04-21 06:26 38.67139 13.45943 23977 ft 402 kts 15°
2026-04-21 06:26 38.69787 13.47128 24417 ft 404 kts 14°
2026-04-21 06:27 38.72452 13.48318 24853 ft 407 kts 14°
2026-04-21 06:27 38.75136 13.49512 25282 ft 409 kts 14°
2026-04-21 06:27 38.77834 13.50712 25723 ft 412 kts 15°
2026-04-21 06:27 38.80553 13.51923 26132 ft 415 kts 15°
2026-04-21 06:28 38.83288 13.53148 26542 ft 418 kts 15°
2026-04-21 06:28 38.86041 13.54382 26947 ft 420 kts 15°
2026-04-21 06:28 38.88809 13.55621 27347 ft 423 kts 15°
2026-04-21 06:28 38.91597 13.56869 27750 ft 425 kts 15°
2026-04-21 06:29 38.94403 13.58123 28147 ft 428 kts 15°
2026-04-21 06:29 38.97222 13.59381 28537 ft 430 kts 15°
2026-04-21 06:29 39.00059 13.60648 28918 ft 433 kts 15°
2026-04-21 06:29 39.02914 13.61927 29307 ft 436 kts 15°
2026-04-21 06:30 39.05788 13.63220 29675 ft 439 kts 15°
2026-04-21 06:30 39.08678 13.64525 30038 ft 441 kts 15°
2026-04-21 06:30 39.11586 13.65836 30344 ft 444 kts 15°
2026-04-21 06:30 39.14505 13.67150 30648 ft 446 kts 15°
2026-04-21 06:31 39.17436 13.68469 30950 ft 447 kts 15°
2026-04-21 06:31 39.20378 13.69798 31254 ft 449 kts 15°
2026-04-21 06:31 39.23332 13.71133 31560 ft 450 kts 15°
2026-04-21 06:31 39.26291 13.72470 31913 ft 450 kts 14°
2026-04-21 06:32 39.29244 13.73805 32343 ft 449 kts 14°
2026-04-21 06:32 39.32186 13.75134 32767 ft 447 kts 14°
2026-04-21 06:32 39.35121 13.76460 33184 ft 446 kts 14°
2026-04-21 06:32 39.38046 13.77786 33606 ft 445 kts 14°
2026-04-21 06:33 39.40962 13.79111 34021 ft 443 kts 14°
2026-04-21 06:33 39.43874 13.80401 34394 ft 441 kts 12°
2026-04-21 06:33 39.46803 13.81561 34716 ft 440 kts 11°
2026-04-21 06:33 39.49749 13.82628 35031 ft 439 kts
2026-04-21 06:34 39.52695 13.83644 35340 ft 438 kts
2026-04-21 06:34 39.55639 13.84652 35642 ft 437 kts
2026-04-21 06:34 39.58574 13.85677 35941 ft 437 kts
2026-04-21 06:34 39.61508 13.86729 36221 ft 437 kts
2026-04-21 06:35 39.64432 13.87801 36517 ft 437 kts 10°
2026-04-21 06:35 39.67355 13.88888 36795 ft 437 kts 10°
2026-04-21 06:35 39.70272 13.89980 37069 ft 436 kts 10°
2026-04-21 06:35 39.73146 13.91056 37332 ft 436 kts 10°
2026-04-21 06:36 39.76099 13.92157 37603 ft 435 kts
2026-04-21 06:36 39.79006 13.93235 37863 ft 435 kts
2026-04-21 06:36 39.81914 13.94311 37983 ft 434 kts
2026-04-21 06:37 39.87717 13.96458 37991 ft 433 kts
2026-04-21 06:37 39.93507 13.98607 37991 ft 433 kts
2026-04-21 06:38 39.99258 14.00748 37991 ft 433 kts
2026-04-21 06:38 40.05047 14.02912 37998 ft 433 kts
2026-04-21 06:39 40.10834 14.05076 38001 ft 433 kts
2026-04-21 06:39 40.16623 14.07235 38003 ft 433 kts
2026-04-21 06:40 40.22415 14.09398 38002 ft 433 kts
2026-04-21 06:40 40.28205 14.11569 38025 ft 433 kts
2026-04-21 06:41 40.33997 14.13747 38015 ft 433 kts
2026-04-21 06:41 40.39788 14.15930 38004 ft 433 kts
2026-04-21 06:42 40.45577 14.18120 38006 ft 433 kts
2026-04-21 06:42 40.51370 14.20309 38014 ft 433 kts
2026-04-21 06:43 40.57166 14.22504 38019 ft 433 kts
2026-04-21 06:43 40.62957 14.24705 38015 ft 433 kts
2026-04-21 06:44 40.68746 14.26906 38029 ft 433 kts
2026-04-21 06:44 40.74538 14.29108 38019 ft 433 kts
2026-04-21 06:45 40.80325 14.31318 38022 ft 433 kts
2026-04-21 06:45 40.86082 14.33517 38019 ft 433 kts
2026-04-21 06:46 40.91909 14.35753 38031 ft 433 kts
2026-04-21 06:46 40.97658 14.37967 38030 ft 433 kts
2026-04-21 06:47 41.03441 14.40177 38019 ft 433 kts
2026-04-21 06:47 41.09264 14.42413 38026 ft 433 kts
2026-04-21 06:48 41.15001 14.44637 38021 ft 432 kts
2026-04-21 06:48 41.20777 14.46871 38011 ft 432 kts
2026-04-21 06:49 41.26551 14.49107 38011 ft 432 kts
2026-04-21 06:49 41.32324 14.51341 38013 ft 432 kts
2026-04-21 06:50 41.38094 14.53583 38004 ft 432 kts
2026-04-21 06:50 41.43866 14.55831 37998 ft 432 kts
2026-04-21 06:51 41.49637 14.58083 38007 ft 432 kts
2026-04-21 06:51 41.55409 14.60339 37993 ft 432 kts
2026-04-21 06:52 41.61186 14.62596 37985 ft 433 kts
2026-04-21 06:52 41.66963 14.64863 37982 ft 433 kts
2026-04-21 06:53 41.72764 14.67138 37956 ft 439 kts
2026-04-21 06:53 41.78691 14.69463 37961 ft 448 kts
2026-04-21 06:54 41.84682 14.71834 37971 ft 450 kts 10°
2026-04-21 06:54 41.90684 14.74214 37964 ft 450 kts 10°
2026-04-21 06:55 41.96686 14.76591 37960 ft 450 kts 10°
2026-04-21 06:55 42.02692 14.78975 37976 ft 450 kts 10°
2026-04-21 06:56 42.08704 14.81361 37999 ft 451 kts 10°
2026-04-21 06:56 42.14722 14.83750 37983 ft 451 kts 10°
2026-04-21 06:57 42.20735 14.86156 37991 ft 451 kts 10°
2026-04-21 06:57 42.26753 14.88568 38024 ft 451 kts 10°
2026-04-21 06:58 42.32731 14.90966 37993 ft 451 kts 10°
2026-04-21 06:58 42.38789 14.93408 37990 ft 451 kts 10°
2026-04-21 06:59 42.44806 14.95825 38015 ft 451 kts 10°
2026-04-21 06:59 42.50781 14.98230 38000 ft 451 kts 10°
2026-04-21 07:00 42.56499 15.00541 37991 ft 451 kts 10°
2026-04-21 07:00 42.62513 15.02972 37992 ft 451 kts 10°
2026-04-21 07:01 42.68528 15.05417 38005 ft 451 kts 10°
2026-04-21 07:01 42.77556 15.09090 37993 ft 452 kts 10°
2026-04-21 07:02 42.83575 15.11539 38013 ft 451 kts 10°
2026-04-21 07:02 42.89596 15.13993 37999 ft 452 kts 10°
2026-04-21 07:03 42.95614 15.16450 37994 ft 452 kts 11°
2026-04-21 07:03 43.01634 15.18923 38016 ft 452 kts 11°
2026-04-21 07:04 43.07666 15.21347 37996 ft 451 kts
2026-04-21 07:04 43.13756 15.23304 37984 ft 449 kts
2026-04-21 07:05 43.19872 15.25056 37980 ft 449 kts
2026-04-21 07:05 43.25990 15.26896 37979 ft 451 kts
2026-04-21 07:06 43.32111 15.28840 37987 ft 452 kts
2026-04-21 07:06 43.38240 15.30797 37977 ft 453 kts
2026-04-21 07:07 43.43629 15.32502 37984 ft 453 kts
2026-04-21 07:07 43.49781 15.34425 37977 ft 454 kts
2026-04-21 07:08 43.55942 15.36373 37975 ft 454 kts
2026-04-21 07:08 43.61061 15.38009 38004 ft 454 kts
2026-04-21 07:09 43.67214 15.39972 37994 ft 453 kts
2026-04-21 07:09 43.73355 15.41928 37993 ft 453 kts
2026-04-21 07:10 43.79489 15.43883 37990 ft 452 kts
2026-04-21 07:10 43.85621 15.45841 37990 ft 452 kts
2026-04-21 07:11 43.91748 15.47810 37990 ft 452 kts
2026-04-21 07:11 43.97871 15.49794 37999 ft 452 kts
2026-04-21 07:12 44.03986 15.51773 37998 ft 451 kts
2026-04-21 07:12 44.10104 15.53749 37994 ft 451 kts
2026-04-21 07:13 44.16220 15.55714 38011 ft 451 kts
2026-04-21 07:13 44.22333 15.57691 38002 ft 451 kts
2026-04-21 07:14 44.28441 15.59680 38006 ft 451 kts
2026-04-21 07:14 44.34546 15.61670 38032 ft 450 kts
2026-04-21 07:15 44.40649 15.63664 38038 ft 450 kts
2026-04-21 07:15 44.46747 15.65658 38043 ft 450 kts
2026-04-21 07:16 44.52842 15.67651 38061 ft 450 kts
2026-04-21 07:16 44.58929 15.69658 38058 ft 450 kts
2026-04-21 07:17 44.65026 15.71664 38054 ft 450 kts
2026-04-21 07:17 44.71124 15.73667 38078 ft 450 kts
2026-04-21 07:18 44.77223 15.75681 38079 ft 450 kts
2026-04-21 07:18 44.83315 15.77697 38083 ft 450 kts
2026-04-21 07:19 44.89408 15.79721 38102 ft 450 kts
2026-04-21 07:19 44.95487 15.81753 38100 ft 449 kts
2026-04-21 07:20 45.01565 15.83785 38096 ft 448 kts
2026-04-21 07:20 45.07630 15.85807 38119 ft 448 kts
2026-04-21 07:21 45.13697 15.87830 38098 ft 447 kts
2026-04-21 07:21 45.19712 15.89847 38093 ft 447 kts
2026-04-21 07:22 45.25649 15.92647 38117 ft 454 kts 17°
2026-04-21 07:22 45.31476 15.96086 38107 ft 453 kts 17°
2026-04-21 07:23 45.37300 15.99525 38103 ft 453 kts 17°
2026-04-21 07:23 45.43119 16.02965 38093 ft 453 kts 17°
2026-04-21 07:24 45.48938 16.06408 38109 ft 453 kts 17°
2026-04-21 07:24 45.54754 16.09852 38103 ft 453 kts 17°
2026-04-21 07:25 45.60569 16.13297 38099 ft 452 kts 17°
2026-04-21 07:25 45.66381 16.16764 38098 ft 453 kts 17°
2026-04-21 07:26 45.72189 16.20241 38097 ft 452 kts 17°
2026-04-21 07:26 45.78000 16.23715 38097 ft 452 kts 17°
2026-04-21 07:27 45.83807 16.27202 38104 ft 453 kts 17°
2026-04-21 07:27 45.89722 16.30044 38095 ft 443 kts
2026-04-21 07:28 45.95835 16.30250 38086 ft 435 kts 352°
2026-04-21 07:28 46.01838 16.29829 38105 ft 433 kts 353°
2026-04-21 07:29 46.07748 16.29445 38091 ft 421 kts 353°
2026-04-21 07:29 46.13577 16.29065 38093 ft 419 kts 353°
2026-04-21 07:30 46.19394 16.28675 38094 ft 418 kts 353°
2026-04-21 07:30 46.25217 16.28270 37825 ft 419 kts 352°
2026-04-21 07:31 46.28126 16.28070 37554 ft 418 kts 352°
2026-04-21 07:31 46.31027 16.27873 37296 ft 417 kts 352°
2026-04-21 07:31 46.33922 16.27677 37036 ft 416 kts 352°
2026-04-21 07:31 46.36814 16.27482 36778 ft 415 kts 351°
2026-04-21 07:32 46.39655 16.26991 36520 ft 409 kts 345°
2026-04-21 07:32 46.42463 16.26320 36275 ft 408 kts 344°
2026-04-21 07:32 46.45268 16.25650 36049 ft 409 kts 344°
2026-04-21 07:32 46.48076 16.24981 35404 ft 411 kts 344°
2026-04-21 07:33 46.50883 16.24315 34904 ft 406 kts 343°
2026-04-21 07:33 46.53660 16.23659 34365 ft 403 kts 342°
2026-04-21 07:33 46.56413 16.23010 33777 ft 399 kts 342°
2026-04-21 07:33 46.59138 16.22367 33242 ft 394 kts 342°
2026-04-21 07:34 46.61824 16.21737 32724 ft 388 kts 341°
2026-04-21 07:34 46.64472 16.21111 32253 ft 384 kts 341°
2026-04-21 07:34 46.67101 16.20487 31694 ft 381 kts 342°
2026-04-21 07:34 46.69700 16.19871 31194 ft 377 kts 341°
2026-04-21 07:35 46.72274 16.19260 30691 ft 373 kts 341°
2026-04-21 07:35 46.74823 16.18648 30206 ft 369 kts 341°
2026-04-21 07:35 46.77346 16.18042 29670 ft 365 kts 341°
2026-04-21 07:35 46.79834 16.17448 29209 ft 359 kts 341°
2026-04-21 07:36 46.82283 16.16864 28760 ft 354 kts 341°
2026-04-21 07:36 46.84691 16.16291 28320 ft 348 kts 341°
2026-04-21 07:36 46.87060 16.15724 27915 ft 343 kts 343°
2026-04-21 07:36 46.89399 16.15159 27482 ft 339 kts 343°
2026-04-21 07:37 46.91710 16.14599 27070 ft 334 kts 343°
2026-04-21 07:37 46.93994 16.14048 26658 ft 331 kts 344°
2026-04-21 07:37 46.96251 16.13506 26252 ft 327 kts 344°
2026-04-21 07:37 46.98487 16.12965 25838 ft 324 kts 344°
2026-04-21 07:38 47.00703 16.12425 25411 ft 322 kts 345°
2026-04-21 07:38 47.02906 16.11890 25005 ft 320 kts 345°
2026-04-21 07:38 47.05100 16.11357 24568 ft 319 kts 346°
2026-04-21 07:38 47.07287 16.10825 24125 ft 318 kts 346°
2026-04-21 07:39 47.09469 16.10298 23689 ft 318 kts 347°
2026-04-21 07:39 47.11648 16.09771 23177 ft 317 kts 347°
2026-04-21 07:39 47.13816 16.09247 22728 ft 314 kts 347°
2026-04-21 07:39 47.15966 16.08727 22288 ft 312 kts 347°
2026-04-21 07:40 47.18107 16.08210 21851 ft 310 kts 347°
2026-04-21 07:40 47.20230 16.07694 21424 ft 309 kts 347°
2026-04-21 07:40 47.22346 16.07181 20999 ft 307 kts 347°
2026-04-21 07:40 47.24451 16.06672 20570 ft 306 kts 347°
2026-04-21 07:41 47.26551 16.06161 20148 ft 305 kts 347°
2026-04-21 07:41 47.28647 16.05644 19716 ft 305 kts 347°
2026-04-21 07:41 47.30737 16.05125 19319 ft 304 kts 348°
2026-04-21 07:41 47.32825 16.04608 18896 ft 304 kts 349°
2026-04-21 07:42 47.34915 16.04101 18489 ft 304 kts 351°
2026-04-21 07:42 47.37033 16.04039 18032 ft 306 kts
2026-04-21 07:42 47.39137 16.04704 17781 ft 314 kts 15°
2026-04-21 07:42 47.41219 16.05735 17530 ft 316 kts 16°
2026-04-21 07:43 47.43300 16.06768 17266 ft 315 kts 16°
2026-04-21 07:43 47.45377 16.07800 17007 ft 315 kts 16°
2026-04-21 07:43 47.47448 16.08828 16745 ft 313 kts 16°
2026-04-21 07:43 47.49510 16.09852 16471 ft 312 kts 16°
2026-04-21 07:44 47.51568 16.10875 16238 ft 312 kts 17°
2026-04-21 07:44 47.53612 16.11888 15971 ft 308 kts 16°
2026-04-21 07:44 47.55633 16.12891 15711 ft 306 kts 17°
2026-04-21 07:44 47.57650 16.13892 15459 ft 305 kts 17°
2026-04-21 07:45 47.59661 16.14893 15210 ft 305 kts 15°
2026-04-21 07:45 47.61665 16.15892 14955 ft 303 kts 16°
2026-04-21 07:45 47.63634 16.16874 14704 ft 303 kts 17°
2026-04-21 07:45 47.65635 16.17872 14454 ft 302 kts 17°
2026-04-21 07:46 47.67624 16.18867 14211 ft 301 kts 16°
2026-04-21 07:46 47.69607 16.19861 13957 ft 301 kts 16°
2026-04-21 07:46 47.71594 16.20859 13688 ft 301 kts 17°
2026-04-21 07:46 47.73565 16.21849 13434 ft 297 kts 16°
2026-04-21 07:47 47.75505 16.22903 13194 ft 297 kts 22°
2026-04-21 07:47 47.77265 16.24522 12941 ft 300 kts 36°
2026-04-21 07:47 47.78750 16.26696 12687 ft 300 kts 43°
2026-04-21 07:47 47.80163 16.28960 12434 ft 298 kts 44°
2026-04-21 07:48 47.81580 16.31218 12190 ft 298 kts 43°
2026-04-21 07:48 47.82988 16.33462 11943 ft 296 kts 43°
2026-04-21 07:48 47.84388 16.35694 11694 ft 294 kts 44°
2026-04-21 07:48 47.85785 16.37921 11450 ft 293 kts 43°
2026-04-21 07:49 47.87164 16.40146 11203 ft 292 kts 46°
2026-04-21 07:49 47.88292 16.42672 10956 ft 295 kts 60°
2026-04-21 07:49 47.89008 16.45552 10587 ft 298 kts 72°
2026-04-21 07:49 47.89463 16.48554 10293 ft 297 kts 84°
2026-04-21 07:50 47.89174 16.51573 10024 ft 298 kts 109°
2026-04-21 07:50 47.88033 16.54125 9706 ft 299 kts 136°
2026-04-21 07:50 47.86256 16.55682 9411 ft 299 kts 162°
2026-04-21 07:50 47.84249 16.56534 9128 ft 301 kts 166°
2026-04-21 07:51 47.82233 16.57361 8845 ft 300 kts 166°
2026-04-21 07:51 47.80237 16.58183 8631 ft 293 kts 166°
2026-04-21 07:51 47.78313 16.58984 8477 ft 282 kts 166°
2026-04-21 07:51 47.76444 16.59763 8239 ft 276 kts 166°
2026-04-21 07:52 47.74609 16.60526 8097 ft 274 kts 166°
2026-04-21 07:52 47.72777 16.61287 7975 ft 273 kts 166°
2026-04-21 07:52 47.70947 16.62046 7751 ft 273 kts 166°
2026-04-21 07:52 47.69750 16.62606 7591 ft 273 kts 157°
2026-04-21 07:53 47.68249 16.64263 7321 ft 271 kts 127°
2026-04-21 07:53 47.67462 16.66747 7030 ft 266 kts 97°
2026-04-21 07:53 47.67535 16.69412 6737 ft 257 kts 70°
2026-04-21 07:53 47.68120 16.71897 6449 ft 252 kts 54°
2026-04-21 07:54 47.69273 16.73731 6159 ft 240 kts 26°
2026-04-21 07:54 47.70800 16.74540 5921 ft 231 kts
2026-04-21 07:54 47.72366 16.74290 5699 ft 226 kts 341°
2026-04-21 07:54 47.73883 16.73663 5476 ft 231 kts 343°
2026-04-21 07:55 47.75491 16.73091 5250 ft 237 kts 343°
2026-04-21 07:55 47.77074 16.72472 4767 ft 238 kts 342°
2026-04-21 07:55 47.78685 16.71802 4235 ft 241 kts 342°
2026-04-21 07:55 47.80290 16.71131 4001 ft 239 kts 342°
2026-04-21 07:56 47.81894 16.70461 3999 ft 240 kts 342°
2026-04-21 07:56 47.83509 16.69786 4002 ft 242 kts 342°
2026-04-21 07:56 47.85089 16.69127 3999 ft 227 kts 342°
2026-04-21 07:56 47.86550 16.68516 4005 ft 210 kts 343°
2026-04-21 07:57 47.87926 16.67940 4011 ft 203 kts 343°
2026-04-21 07:57 47.89277 16.67373 4008 ft 201 kts 343°
2026-04-21 07:57 47.90622 16.66809 4006 ft 201 kts 343°
2026-04-21 07:57 47.91941 16.66257 3985 ft 191 kts 342°
2026-04-21 07:58 47.93193 16.65732 3847 ft 184 kts 342°
2026-04-21 07:58 47.94420 16.65216 3633 ft 182 kts 342°
2026-04-21 07:58 47.95640 16.64703 3391 ft 183 kts 342°
2026-04-21 07:58 47.96873 16.64185 3137 ft 185 kts 342°
2026-04-21 07:59 47.98117 16.63662 2876 ft 186 kts 342°
2026-04-21 07:59 47.99365 16.63137 2611 ft 186 kts 342°
2026-04-21 07:59 48.00580 16.62627 2387 ft 177 kts 342°
2026-04-21 07:59 48.01720 16.62148 2131 ft 162 kts 342°
2026-04-21 08:00 48.02729 16.61724 1930 ft 139 kts 342°
2026-04-21 08:00 48.03616 16.61353 1682 ft 127 kts 342°
2026-04-21 08:00 48.04447 16.61010 1515 ft 123 kts 342°
2026-04-21 08:00 48.05278 16.60672 1349 ft 122 kts 342°
2026-04-21 08:01 48.06097 16.60333 1221 ft 121 kts 341°
2026-04-21 08:01 48.06899 16.59968 1058 ft 121 kts 341°
2026-04-21 08:01 48.07723 16.59611 906 ft 126 kts 342°
2026-04-21 08:02 48.09340 16.58926 614 ft 94 kts 343°
2026-04-21 08:02 48.09831 16.58727 613 ft 59 kts 344°
2026-04-21 08:02 48.10029 16.58559 621 ft 21 kts 309°
2026-04-21 08:02 48.10091 16.58411 621 ft 14 kts 299°
2026-04-21 08:03 48.10160 16.58308 613 ft 15 kts 339°
2026-04-21 08:03 48.10262 16.58260 614 ft 16 kts 343°
2026-04-21 08:03 48.10374 16.58217 616 ft 17 kts 345°
2026-04-21 08:03 48.10491 16.58167 615 ft 18 kts 344°
2026-04-21 08:04 48.10616 16.58114 612 ft 19 kts 345°
2026-04-21 08:04 48.10750 16.58058 615 ft 20 kts 343°
2026-04-21 08:04 48.10889 16.58000 620 ft 21 kts 344°
2026-04-21 08:04 48.10971 16.57911 617 ft 15 kts 315°
2026-04-21 08:05 48.11043 16.57783 622 ft 17 kts 296°
2026-04-21 08:05 48.11098 16.57616 609 ft 19 kts 296°
2026-04-21 08:05 48.11157 16.57434 615 ft 20 kts 296°
2026-04-21 08:05 48.11204 16.57299 619 ft 13 kts 312°
2026-04-21 08:06 48.11288 16.57313 613 ft 14 kts 24°
2026-04-21 08:06 48.11384 16.57383 609 ft 16 kts 25°
2026-04-21 08:06 48.11454 16.57305 618 ft 14 kts 295°
2026-04-21 08:06 48.11500 16.57161 609 ft 16 kts 296°
2026-04-21 08:07 48.11545 16.57022 623 ft 12 kts 296°
2026-04-21 08:07 48.11571 16.56942 612 ft 5 kts 296°
2026-04-21 08:07 48.11597 16.56916 611 ft 3 kts 12°
2026-04-21 08:07 48.11614 16.56924 619 ft 2 kts 20°
2026-04-21 08:08 48.11626 16.56932 616 ft 1 kts 24°
2026-04-21 08:08 48.11633 16.56937 616 ft 1 kts 25°
2026-04-21 08:08 48.11643 16.56944 612 ft 2 kts 25°
2026-04-21 08:08 48.11651 16.56950 613 ft 1 kts 26°
2026-04-21 08:09 48.11655 16.56953 615 ft 0 kts 26°
2026-04-21 08:09 48.11656 16.56954 609 ft 0 kts 26°